EW0139 Weather Reports


time (UTC)temp
C
wind
direction
speed
KPH
gust
KPH
rain 1hr
cm
rain 24hr
cm
rain mn
cm
humidity
%
barometer
mb
20260502194821 18 317 22.5 27.4 0.00 0.00 0.00 33 1014.7
20260502193800 18 331 17.7 32.2 0.00 0.00 0.00 32 1015.1
20260502192759 20 314 29.0 33.8 0.00 0.00 0.00 32 1015.1
20260502191744 19 323 24.1 38.6 0.00 0.00 0.00 34 1015.1
20260502190745 18 338 9.7 37.0 0.00 0.00 0.00 34 1015.2
20260502185746 18 306 22.5 29.0 0.00 0.00 0.00 35 1015.2
20260502184806 18 316 22.5 33.8 0.00 0.00 0.00 34 1015.3
20260502183749 18 327 20.9 32.2 0.00 0.00 0.00 36 1015.3
20260502182753 18 344 11.3 32.2 0.00 0.00 0.00 35 1015.2
20260502181754 18 325 19.3 35.4 0.00 0.00 0.00 34 1015.3
20260502180755 18 333 19.3 32.2 0.00 0.00 0.00 35 1015.3
20260502163749 18 311 25.7 35.4 0.00 0.00 0.00 40 1014.9
20260502162749 17 316 27.4 38.6 0.00 0.00 0.00 39 1014.8
20260502161753 17 310 29.0 38.6 0.00 0.00 0.00 40 1014.7
20260502160755 17 309 33.8 33.8 0.00 0.00 0.00 40 1015.0
20260502151759 16 328 14.5 25.7 0.00 0.00 0.00 42 1014.6
20260502150759 16 315 24.1 29.0 0.00 0.00 0.00 40 1014.6
20260502130745 8 254 9.7 14.5 0.00 0.00 0.00 62 1014.2
20260502123751 5 19 1.6 4.8 0.00 0.00 0.00 71 1014.0
20260502122752 5 19 4.8 6.4 0.00 0.00 0.00 70 1014.0
20260502121754 5 6 4.8 4.8 0.00 0.00 0.00 68 1013.8
20260502120753 5 342 0.0 4.8 0.00 0.00 0.00 69 1013.8
20260502115814 5 340 1.6 6.4 0.00 0.00 0.00 71 1013.7
20260502114820 4 342 1.6 4.8 0.00 0.00 0.00 72 1013.6
20260502113741 4 342 3.2 4.8 0.00 0.00 0.00 73 1013.5
20260502112741 5 338 0.0 0.0 0.00 0.00 0.00 70 1013.4
20260502111741 5 338 0.0 0.0 0.00 0.00 0.00 70 1013.3
20260502110749 5 338 1.6 4.8 0.00 0.00 0.00 69 1013.4
20260502105749 5 338 0.0 4.8 0.00 0.00 0.00 68 1013.5
20260502104749 5 338 4.8 6.4 0.00 0.00 0.00 69 1013.3
20260502103750 5 338 3.2 6.4 0.00 0.00 0.00 70 1013.2
20260502102753 5 338 4.8 8.0 0.00 0.00 0.00 71 1013.2
20260502101738 5 338 3.2 8.0 0.00 0.00 0.00 72 1013.1
20260502100742 5 338 6.4 6.4 0.00 0.00 0.00 73 1013.0
20260502090759 5 338 3.2 11.3 0.00 0.00 0.00 71 1013.0
20260502070744 6 328 0.0 9.7 0.00 0.00 0.00 60 1013.4
20260502065749 7 329 4.8 16.1 0.00 0.00 0.00 56 1013.3
20260502064754 8 350 4.8 6.4 0.00 0.00 0.00 54 1013.2
20260502063752 8 34 1.6 8.0 0.00 0.00 0.00 53 1012.9
20260502062813 8 34 3.2 8.0 0.00 0.00 0.00 51 1012.8
20260502060752 10 336 4.8 6.4 0.00 0.00 0.00 46 1012.9
20260502055755 11 123 0.0 4.8 0.00 0.00 0.00 43 1012.8
20260502054819 12 123 0.0 8.0 0.00 0.00 0.00 42 1012.9
20260502053801 12 123 9.7 9.7 0.00 0.00 0.00 41 1012.8
20260502052822 12 124 8.0 9.7 0.00 0.00 0.00 40 1012.9
20260502051746 12 134 4.8 8.0 0.00 0.00 0.00 40 1013.0
20260502050745 12 142 6.4 11.3 0.00 0.00 0.00 41 1013.1
20260502045747 12 144 9.7 16.1 0.00 0.00 0.00 42 1013.1
20260502044745 12 144 14.5 16.1 0.00 0.00 0.00 41 1013.1
20260502043807 12 139 6.4 11.3 0.00 0.00 0.00 41 1013.2
20260502042750 12 146 8.0 11.3 0.00 0.00 0.00 41 1013.3
20260502041751 12 138 8.0 11.3 0.00 0.00 0.00 40 1013.3
20260502040815 12 136 8.0 11.3 0.00 0.00 0.00 38 1013.2
20260502035757 13 136 4.8 14.5 0.00 0.00 0.00 38 1013.4
20260502034800 12 146 8.0 11.3 0.00 0.00 0.00 39 1013.5
20260502033744 12 173 4.8 9.7 0.00 0.00 0.00 39 1013.5
20260502032745 13 134 6.4 14.5 0.00 0.00 0.00 37 1013.5
20260502031745 12 122 8.0 11.3 0.00 0.00 0.00 38 1013.6
20260502030746 12 140 3.2 4.8 0.00 0.00 0.00 38 1013.5
20260502025749 13 140 0.0 4.8 0.00 0.00 0.00 38 1013.6
20260502024752 13 140 1.6 4.8 0.00 0.00 0.00 37 1013.6
20260502023752 15 140 4.8 11.3 0.00 0.00 0.00 35 1013.3
20260502022754 16 132 14.5 17.7 0.00 0.00 0.00 31 1013.5
20260502021755 16 107 11.3 17.7 0.00 0.00 0.00 31 1013.5
20260502020742 16 109 9.7 16.1 0.00 0.00 0.00 31 1013.5
20260502015747 17 107 11.3 19.3 0.00 0.00 0.00 30 1013.6
20260502014749 17 111 12.9 19.3 0.00 0.00 0.00 30 1013.8
20260502013750 18 114 16.1 17.7 0.00 0.00 0.00 29 1013.8
20260502012754 18 115 9.7 19.3 0.00 0.00 0.00 28 1013.9
20260502011754 18 124 16.1 22.5 0.00 0.00 0.00 28 1014.0
20260502010755 19 123 16.1 17.7 0.00 0.00 0.00 28 1014.0
20260502005754 20 127 8.0 17.7 0.00 0.00 0.00 28 1014.2
20260502004743 20 112 8.0 14.5 0.00 0.00 0.00 27 1014.3
20260502003742 20 106 11.3 19.3 0.00 0.00 0.00 28 1014.4
20260502002741 20 141 4.8 19.3 0.00 0.00 0.00 28 1014.5
20260502001746 20 125 4.8 12.9 0.00 0.00 0.00 25 1014.5
20260502000747 21 133 6.4 16.1 0.00 0.00 0.00 26 1014.7
20260501235753 21 141 8.0 16.1 0.00 0.00 0.00 28 1014.7
20260501234755 21 85 8.0 16.1 0.00 0.00 0.00 27 1014.7
20260501233815 21 144 9.7 16.1 0.00 0.00 0.00 27 1014.7
20260501232759 21 123 6.4 14.5 0.00 0.00 0.00 26 1014.9
20260501231744 21 169 20.9 24.1 0.00 0.00 0.00 26 1015.0
20260501230744 21 176 12.9 14.5 0.00 0.00 0.00 28 1015.0
20260501225750 21 281 6.4 12.9 0.00 0.00 0.00 27 1015.1
20260501224751 20 139 12.9 19.3 0.00 0.00 0.00 25 1015.3
20260501223816 20 200 14.5 17.7 0.00 0.00 0.00 27 1014.4
20260501222800 21 115 11.3 17.7 0.00 0.00 0.00 26 1014.6
20260501221820 20 141 8.0 16.1 0.00 0.00 0.00 26 1014.6
20260501220757 20 156 8.0 16.1 0.00 0.00 0.00 28 1014.6
20260501215802 20 182 9.7 16.1 0.00 0.00 0.00 28 1014.8
20260501214742 20 107 8.0 11.3 0.00 0.00 0.00 29 1015.1
20260501213748 20 161 9.7 20.9 0.00 0.00 0.00 27 1015.3
20260501212748 20 151 9.7 17.7 0.00 0.00 0.00 27 1015.3
20260501211749 20 174 3.2 11.3 0.00 0.00 0.00 27 1015.4
20260501210748 20 124 8.0 19.3 0.00 0.00 0.00 27 1015.4
20260501205748 20 136 16.1 24.1 0.00 0.00 0.00 29 1015.5
20260501204754 19 42 8.0 19.3 0.00 0.00 0.00 27 1015.7
20260501203814 18 198 0.0 19.3 0.00 0.00 0.00 26 1015.9
20260501202758 18 116 4.8 16.1 0.00 0.00 0.00 27 1015.9
20260501201820 18 115 11.3 19.3 0.00 0.00 0.00 27 1016.0
20260501200743 18 105 6.4 11.3 0.00 0.00 0.00 29 1016.3
20260501195744 18 63 6.4 17.7 0.00 0.00 0.00 28 1016.3